TimeEST,TemperatureF,Dew PointF,Humidity,Sea Level PressureIn,VisibilityMPH,Wind Direction,Wind SpeedMPH,Gust SpeedMPH,PrecipitationIn,Events,Conditions,WindDirDegrees,DateUTC
12:05 AM,42.8,42.8,100,29.29,7.0,SW,17.3,27.6,N/A,,Overcast,230,2013-01-31 05:05:00
12:45 AM,39.2,39.2,100,29.26,7.0,WSW,18.4,27.6,N/A,,Overcast,250,2013-01-31 05:45:00
1:10 AM,37.4,37.4,100,29.24,7.0,WSW,16.1,26.5,N/A,,Overcast,250,2013-01-31 06:10:00
1:50 AM,35.6,35.6,100,29.27,4.0,West,17.3,47.2,N/A,,Overcast,260,2013-01-31 06:50:00
2:10 AM,32.0,32.0,100,29.30,3.0,West,17.3,35.7,N/A,,Overcast,260,2013-01-31 07:10:00
2:35 AM,32.0,32.0,100,29.31,2.5,West,19.6,32.2,N/A,,Overcast,270,2013-01-31 07:35:00
3:00 AM,32.0,32.0,100,29.31,1.2,West,21.9,32.2,N/A,,Overcast,260,2013-01-31 08:00:00
3:20 AM,32.0,32.0,100,29.32,1.0,West,17.3,27.6,N/A,,Overcast,270,2013-01-31 08:20:00
3:45 AM,28.4,28.4,100,29.32,0.8,West,19.6,47.2,N/A,,Overcast,280,2013-01-31 08:45:00
4:05 AM,28.4,28.4,100,29.34,1.5,West,18.4,29.9,N/A,,Overcast,270,2013-01-31 09:05:00
4:25 AM,28.4,28.4,100,29.35,1.8,West,26.5,39.1,N/A,,Overcast,270,2013-01-31 09:25:00
4:45 AM,28.4,28.4,100,29.37,7.0,West,18.4,34.5,N/A,,Overcast,260,2013-01-31 09:45:00
5:10 AM,26.6,26.6,100,29.39,5.0,West,18.4,32.2,N/A,,Overcast,270,2013-01-31 10:10:00
5:30 AM,26.6,26.6,100,29.40,5.0,West,17.3,34.5,N/A,,Overcast,260,2013-01-31 10:30:00
5:50 AM,26.6,24.8,93,29.41,7.0,West,20.7,33.4,N/A,,Overcast,260,2013-01-31 10:50:00
6:10 AM,24.8,24.8,100,29.42,5.0,WSW,20.7,32.2,N/A,,Overcast,250,2013-01-31 11:10:00
6:55 AM,24.8,21.2,86,29.46,7.0,West,15.0,33.4,N/A,,Overcast,270,2013-01-31 11:55:00
7:35 AM,23.0,23.0,100,29.48,3.0,West,15.0,28.8,N/A,,Overcast,270,2013-01-31 12:35:00
8:00 AM,23.0,23.0,100,29.49,0.2,West,15.0,31.1,N/A,Fog,Light Freezing Fog,270,2013-01-31 13:00:00
8:20 AM,23.0,21.2,93,29.50,2.5,West,18.4,34.5,N/A,,Overcast,270,2013-01-31 13:20:00
8:40 AM,23.0,21.2,93,29.50,7.0,West,12.7,26.5,N/A,,Overcast,270,2013-01-31 13:40:00
9:00 AM,23.0,21.2,93,29.51,3.0,West,18.4,36.8,N/A,,Overcast,270,2013-01-31 14:00:00
9:25 AM,21.2,21.2,100,29.52,0.8,West,19.6,35.7,N/A,,Overcast,270,2013-01-31 14:25:00
9:45 AM,23.0,21.2,93,29.51,5.0,West,18.4,35.7,N/A,,Overcast,270,2013-01-31 14:45:00
10:05 AM,21.2,21.2,100,29.52,1.2,West,17.3,36.8,N/A,,Overcast,280,2013-01-31 15:05:00
10:25 AM,21.2,21.2,100,29.54,2.5,West,16.1,27.6,N/A,,Overcast,270,2013-01-31 15:25:00
10:50 AM,23.0,19.4,86,29.55,10.0,West,23.0,36.8,N/A,,Overcast,260,2013-01-31 15:50:00
11:10 AM,21.2,17.6,86,29.57,4.0,West,26.5,35.7,N/A,,Overcast,260,2013-01-31 16:10:00
11:30 AM,21.2,17.6,86,29.58,4.0,West,16.1,32.2,N/A,,Overcast,270,2013-01-31 16:30:00
11:50 AM,21.2,15.8,80,29.58,3.0,West,18.4,38.0,N/A,,Haze,270,2013-01-31 16:50:00
12:15 PM,19.4,19.4,100,29.59,0.2,West,17.3,29.9,N/A,Fog,Light Freezing Fog,260,2013-01-31 17:15:00
12:35 PM,21.2,17.6,86,29.58,3.0,West,21.9,32.2,N/A,,Overcast,270,2013-01-31 17:35:00
12:55 PM,21.2,19.4,93,29.57,0.5,West,23.0,35.7,N/A,Fog,Light Freezing Fog,260,2013-01-31 17:55:00
1:15 PM,21.2,21.2,100,29.58,0.5,West,28.8,41.4,N/A,Fog,Light Freezing Fog,280,2013-01-31 18:15:00
1:40 PM,19.4,19.4,100,29.58,0.5,West,24.2,38.0,N/A,Fog,Light Freezing Fog,280,2013-01-31 18:40:00
2:00 PM,21.2,17.6,86,29.59,1.8,West,17.3,38.0,N/A,,Overcast,260,2013-01-31 19:00:00
2:20 PM,21.2,17.6,86,29.59,3.0,West,19.6,29.9,N/A,,Haze,270,2013-01-31 19:20:00
2:40 PM,21.2,17.6,86,29.60,2.0,West,26.5,38.0,N/A,,Overcast,270,2013-01-31 19:40:00
3:05 PM,21.2,19.4,93,29.62,0.5,West,23.0,35.7,N/A,Fog,Light Freezing Fog,270,2013-01-31 20:05:00
3:25 PM,19.4,15.8,86,29.63,1.2,West,17.3,35.7,N/A,,Overcast,280,2013-01-31 20:25:00
3:45 PM,17.6,17.6,100,29.65,0.5,West,15.0,34.5,N/A,Fog,Light Freezing Fog,270,2013-01-31 20:45:00
4:05 PM,17.6,12.2,79,29.67,5.0,West,24.2,35.7,N/A,,Haze,270,2013-01-31 21:05:00
4:30 PM,17.6,8.6,68,29.68,10.0,West,16.1,27.6,N/A,,Overcast,270,2013-01-31 21:30:00
4:50 PM,17.6,8.6,68,29.69,10.0,West,12.7,26.5,N/A,,Overcast,270,2013-01-31 21:50:00
5:10 PM,17.6,8.6,68,29.69,10.0,West,12.7,24.2,N/A,,Overcast,280,2013-01-31 22:10:00
5:30 PM,17.6,12.2,79,29.70,4.0,West,12.7,28.8,N/A,,Haze,260,2013-01-31 22:30:00
5:55 PM,17.6,10.4,73,29.71,7.0,West,12.7,24.2,N/A,,Mostly Cloudy,260,2013-01-31 22:55:00
6:15 PM,17.6,10.4,73,29.71,10.0,West,11.5,23.0,N/A,,Mostly Cloudy,260,2013-01-31 23:15:00
6:35 PM,17.6,10.4,73,29.71,10.0,West,13.8,19.6,N/A,,Scattered Clouds,260,2013-01-31 23:35:00
6:55 PM,17.6,8.6,68,29.71,10.0,WSW,13.8,24.2,N/A,,Scattered Clouds,250,2013-01-31 23:55:00
7:20 PM,17.6,10.4,73,29.71,10.0,WSW,12.7,27.6,N/A,,Clear,250,2013-02-01 00:20:00
7:40 PM,17.6,10.4,73,29.71,10.0,WSW,17.3,25.3,N/A,,Clear,250,2013-02-01 00:40:00
8:00 PM,17.6,12.2,79,29.71,10.0,WSW,15.0,25.3,N/A,,Clear,250,2013-02-01 01:00:00
8:20 PM,17.6,12.2,79,29.71,10.0,West,12.7,24.2,N/A,,Scattered Clouds,260,2013-02-01 01:20:00
8:45 PM,17.6,12.2,79,29.71,10.0,West,12.7,23.0,N/A,,Overcast,260,2013-02-01 01:45:00
9:05 PM,17.6,14.0,86,29.72,7.0,WSW,17.3,25.3,N/A,,Overcast,250,2013-02-01 02:05:00
9:25 PM,17.6,14.0,86,29.72,10.0,WSW,15.0,28.8,N/A,,Mostly Cloudy,250,2013-02-01 02:25:00
9:45 PM,17.6,17.6,100,29.73,10.0,WSW,12.7,23.0,N/A,,Mostly Cloudy,250,2013-02-01 02:45:00
10:10 PM,17.6,17.6,100,29.72,1.8,WSW,11.5,18.4,N/A,,Overcast,250,2013-02-01 03:10:00
10:30 PM,17.6,17.6,100,29.71,1.0,WSW,13.8,24.2,N/A,,Overcast,250,2013-02-01 03:30:00
10:50 PM,17.6,17.6,100,29.71,1.5,WSW,19.6,32.2,N/A,,Overcast,250,2013-02-01 03:50:00
11:10 PM,17.6,17.6,100,29.71,7.0,West,17.3,21.9,N/A,,Overcast,260,2013-02-01 04:10:00
11:35 PM,17.6,17.6,100,29.70,2.5,West,13.8,25.3,N/A,,Overcast,260,2013-02-01 04:35:00
11:55 PM,17.6,17.6,100,29.69,2.0,West,12.7,20.7,N/A,,Overcast,270,2013-02-01 04:55:00